Ravenna, OH

7:01 AM EDT on May 27, 2017 (GMT -0400)
Ravenna

Weather History for KPOV - March, 2013

Change the Weather History Date:

Sunday, March 3, 2013

  Actual Average (KCAK) Record (KCAK)
Temperature  
Mean Temperature 24 °F -  
Max Temperature 26 °F 44 °F 74 °F (1974)
Min Temperature 21 °F 26 °F -2 °F (1943)
Degree Days  
Heating Degree Days 42    
Moisture  
Dew Point 19 °F    
Average Humidity 82    
Maximum Humidity 92    
Minimum Humidity 71    
Precipitation  
Precipitation 0.00 in - - ()
Sea Level Pressure  
Sea Level Pressure 29.95 in    
Wind  
Wind Speed 8 mph (WNW)    
Max Wind Speed 16 mph    
Max Gust Speed 20 mph    
Visibility 5 miles    
Events Snow    
Averages and records for this station are not official NWS values.
T = Trace of Precipitation, MM = Missing Value Source: NWS Daily Summary

Daily Weather History Graph

Daily Weather History Graph

Search for Another Location

Airport or City:

Trip Planner

Search our weather history database for the weather conditions in past years. The results will help you decide how hot, cold, wet, or windy it might be!

Date:

Astronomy

Mar. 03, 2013 Rise Set
Actual Time 6:55 AM EST 6:18 PM EST
Civil Twilight 6:28 AM EST 6:46 PM EST
Nautical Twilight 5:56 AM EST 7:18 PM EST
Astronomical Twilight 5:24 AM EST 7:50 PM EST
Moon No Moon Rise 10:05 AM EST (3/3)
Length of Visible Light 12h 17m
Length of Day
11h 22m
Waning Gibbous, 64% of the Moon is Illuminated
Mar 3
Waning Gibbous
Mar 4
Last Quarter
Mar 11
New
Mar 19
First Quarter
Mar 27
Full

Hourly Weather History & Observations

Time (EST) Temp. Windchill Dew Point Humidity Pressure Visibility Wind Dir Wind Speed Gust Speed Precip Events Conditions
12:16 AM 24.6 °F 17.7 °F 20.3 °F 84% 29.94 in 7.0 mi NW 5.8 mph - N/A Snow Light Snow
12:35 AM 24.4 °F 15.6 °F 20.1 °F 84% 29.94 in 7.0 mi NW 8.1 mph 16.1 mph N/A Snow Light Snow
12:56 AM 24.3 °F 15.4 °F 20.3 °F 85% 29.94 in 4.0 mi WNW 8.1 mph - N/A Snow Light Snow
1:16 AM 23.9 °F 16.8 °F 20.3 °F 86% 29.95 in 4.0 mi NW 5.8 mph - N/A Snow Light Snow
1:35 AM 23.7 °F 14.0 °F 19.8 °F 85% 29.95 in 7.0 mi NW 9.2 mph - N/A Snow Light Snow
1:55 AM 23.4 °F 16.2 °F 19.8 °F 86% 29.95 in 5.0 mi NW 5.8 mph - N/A Snow Light Snow
2:16 AM 23.4 °F 16.2 °F 19.8 °F 86% 29.94 in 4.0 mi WNW 5.8 mph - N/A Snow Light Snow
2:36 AM 23.0 °F 14.7 °F 19.2 °F 85% 29.94 in 5.0 mi WNW 6.9 mph - N/A Snow Light Snow
2:55 AM 23.0 °F 14.7 °F 19.6 °F 87% 29.93 in 4.0 mi WNW 6.9 mph - N/A Snow Light Snow
3:16 AM 23.0 °F 15.8 °F 19.9 °F 88% 29.93 in 5.0 mi WNW 5.8 mph - N/A Snow Light Snow
3:35 AM 22.8 °F 13.6 °F 19.4 °F 87% 29.93 in 5.0 mi WNW 8.1 mph - N/A Snow Light Snow
3:56 AM 22.6 °F 14.3 °F 19.8 °F 89% 29.93 in 4.0 mi NW 6.9 mph - N/A Snow Light Snow
4:16 AM 22.5 °F 14.1 °F 20.1 °F 91% 29.93 in 3.0 mi West 6.9 mph - N/A Snow Light Snow
4:36 AM 22.5 °F 15.1 °F 19.2 °F 87% 29.93 in 3.0 mi WNW 5.8 mph - N/A Snow Light Snow
4:55 AM 22.1 °F 13.7 °F 19.4 °F 89% 29.93 in 3.0 mi WNW 6.9 mph - N/A Snow Light Snow
5:35 AM 21.9 °F 14.5 °F 19.4 °F 90% 29.93 in 4.0 mi NW 5.8 mph - N/A Snow Light Snow
5:56 AM 21.9 °F 15.7 °F 18.1 °F 85% 29.93 in 10.0 mi WNW 4.6 mph - N/A Snow Light Snow
6:16 AM 21.9 °F 15.7 °F 18.3 °F 86% 29.94 in 3.0 mi WNW 4.6 mph - N/A Snow Light Snow
6:35 AM 21.9 °F 13.4 °F 19.4 °F 90% 29.94 in 2.0 mi WNW 6.9 mph - N/A Snow Light Snow
6:56 AM 21.6 °F 11.3 °F 19.4 °F 91% 29.94 in 4.0 mi West 9.2 mph - N/A Snow Light Snow
7:16 AM 21.4 °F 11.1 °F 19.4 °F 92% 29.94 in 1.0 mi West 9.2 mph - N/A Snow Light Snow
7:35 AM 21.2 °F 10.1 °F 19.2 °F 92% 29.94 in 2.5 mi West 10.4 mph - N/A Snow Light Snow
7:56 AM 21.7 °F 13.2 °F 18.1 °F 86% 29.95 in 4.0 mi West 6.9 mph - N/A Snow Light Snow
8:16 AM 21.7 °F 11.5 °F 18.1 °F 86% 29.95 in 2.5 mi West 9.2 mph - N/A Snow Light Snow
8:35 AM 21.9 °F 11.7 °F 18.5 °F 87% 29.95 in 1.5 mi West 9.2 mph - N/A Snow Light Snow
8:56 AM 22.1 °F 11.3 °F 19.0 °F 88% 29.95 in 1.5 mi West 10.4 mph - N/A Snow Light Snow
9:16 AM 22.5 °F 13.2 °F 19.2 °F 87% 29.95 in 1.8 mi West 8.1 mph - N/A Snow Light Snow
9:35 AM 23.0 °F 13.9 °F 19.2 °F 85% 29.94 in 1.8 mi West 8.1 mph - N/A Snow Light Snow
9:56 AM 23.4 °F 13.5 °F 19.4 °F 85% 29.94 in 2.0 mi West 9.2 mph - N/A Snow Light Snow
10:16 AM 23.9 °F 12.9 °F 19.2 °F 82% 29.94 in 4.0 mi West 11.5 mph - N/A Snow Light Snow
10:35 AM 24.4 °F 14.2 °F 18.1 °F 77% 29.94 in 4.0 mi WNW 10.4 mph - N/A Snow Light Snow
10:55 AM 24.8 °F 13.4 °F 18.7 °F 78% 29.95 in 3.0 mi West 12.7 mph - N/A Snow Light Snow
11:16 AM 24.6 °F 13.8 °F 19.4 °F 81% 29.95 in 1.0 mi West 11.5 mph - N/A Snow Light Snow
11:35 AM 25.2 °F 13.9 °F 19.8 °F 80% 29.95 in 1.8 mi WNW 12.7 mph - N/A Snow Light Snow
11:56 AM 25.7 °F 15.1 °F 19.4 °F 77% 29.94 in 3.0 mi West 11.5 mph 16.1 mph N/A Snow Light Snow
12:35 PM 24.8 °F 15.3 °F 20.3 °F 83% 29.94 in 0.8 mi WNW 9.2 mph - N/A Snow Light Snow
12:56 PM 25.7 °F 13.5 °F 20.3 °F 80% 29.94 in 1.8 mi WNW 15.0 mph 18.4 mph N/A Snow Light Snow
1:16 PM 25.9 °F 14.8 °F 20.1 °F 79% 29.93 in 3.0 mi WNW 12.7 mph 16.1 mph N/A Snow Light Snow
1:35 PM 26.4 °F 14.0 °F 19.6 °F 75% 29.92 in 3.0 mi WNW 16.1 mph - N/A Snow Light Snow
1:56 PM 25.0 °F 14.2 °F 19.2 °F 79% 29.92 in 4.0 mi WNW 11.5 mph - N/A Snow Light Snow
2:16 PM 25.3 °F 15.3 °F 19.0 °F 77% 29.92 in 5.0 mi WNW 10.4 mph - N/A Snow Light Snow
2:35 PM 25.7 °F 13.5 °F 17.6 °F 71% 29.92 in 10.0 mi West 15.0 mph 19.6 mph N/A Snow Light Snow
2:56 PM 25.7 °F 14.6 °F 17.4 °F 71% 29.92 in 10.0 mi WNW 12.7 mph 19.6 mph N/A   Overcast
3:16 PM 25.3 °F 16.0 °F 18.3 °F 75% 29.92 in 5.0 mi WNW 9.2 mph 17.3 mph N/A Snow Light Snow
3:36 PM 24.4 °F 14.2 °F 19.4 °F 81% 29.93 in 2.0 mi WNW 10.4 mph - N/A Snow Light Snow
3:56 PM 24.6 °F 15.1 °F 18.3 °F 77% 29.93 in 10.0 mi WNW 9.2 mph 16.1 mph N/A Snow Light Snow
4:16 PM 24.4 °F 14.9 °F 18.5 °F 78% 29.94 in 5.0 mi WNW 9.2 mph - N/A Snow Light Snow
4:56 PM 23.4 °F 14.3 °F 18.5 °F 82% 29.95 in 2.5 mi WNW 8.1 mph - N/A Snow Light Snow
5:16 PM 23.0 °F 12.4 °F 18.3 °F 82% 29.95 in 1.8 mi WNW 10.4 mph - N/A Snow Light Snow
5:35 PM 23.0 °F 15.8 °F 18.9 °F 84% 29.95 in 7.0 mi WNW 5.8 mph - N/A Snow Light Snow
5:56 PM 23.0 °F 13.9 °F 18.0 °F 81% 29.96 in 4.0 mi WNW 8.1 mph - N/A Snow Light Snow
6:16 PM 23.0 °F 14.7 °F 18.0 °F 81% 29.96 in 2.5 mi WNW 6.9 mph - N/A Snow Light Snow
6:35 PM 23.0 °F 13.9 °F 17.4 °F 79% 29.97 in 10.0 mi WNW 8.1 mph - N/A Snow Light Snow
6:56 PM 23.0 °F 13.1 °F 17.2 °F 79% 29.96 in 10.0 mi West 9.2 mph - N/A Snow Light Snow
7:16 PM 23.0 °F 14.7 °F 16.3 °F 76% 29.97 in 10.0 mi West 6.9 mph - N/A   Overcast
7:35 PM 22.8 °F 12.9 °F 16.2 °F 76% 29.98 in 10.0 mi West 9.2 mph - N/A Snow Light Snow
7:56 PM 21.7 °F 14.3 °F 15.8 °F 78% 29.98 in 10.0 mi West 5.8 mph - N/A   Overcast
8:16 PM 21.7 °F 14.3 °F 16.0 °F 78% 29.98 in 10.0 mi West 5.8 mph - N/A   Overcast
8:36 PM 22.1 °F 14.7 °F 16.5 °F 79% 29.99 in 10.0 mi West 5.8 mph - N/A   Overcast
8:55 PM 22.1 °F 15.9 °F 16.2 °F 78% 29.99 in 10.0 mi West 4.6 mph - N/A   Overcast
9:16 PM 22.1 °F 14.7 °F 15.8 °F 77% 29.99 in 10.0 mi West 5.8 mph - N/A   Overcast
9:35 PM 22.5 °F 15.1 °F 15.6 °F 75% 29.99 in 7.0 mi West 5.8 mph - N/A Snow Light Snow
9:56 PM 22.3 °F 16.1 °F 16.0 °F 77% 29.99 in 7.0 mi West 4.6 mph - N/A Snow Light Snow
10:16 PM 22.1 °F 15.9 °F 16.5 °F 79% 29.98 in 7.0 mi West 4.6 mph - N/A Snow Light Snow
10:35 PM 22.1 °F 13.7 °F 16.7 °F 80% 29.99 in 10.0 mi West 6.9 mph - N/A Snow Light Snow
10:56 PM 22.1 °F 13.7 °F 17.4 °F 82% 29.99 in 5.0 mi West 6.9 mph - N/A Snow Light Snow
11:16 PM 22.1 °F 13.7 °F 18.1 °F 85% 29.98 in 5.0 mi West 6.9 mph - N/A Snow Light Snow
11:35 PM 21.9 °F 13.4 °F 18.7 °F 87% 29.99 in 7.0 mi WNW 6.9 mph - N/A Snow Light Snow
11:56 PM 21.4 °F 12.8 °F 16.3 °F 81% 29.99 in 10.0 mi WNW 6.9 mph - N/A Snow Light Snow